• In Netherlands
  • List of Countries
  • For 7 days
  • Water Temperature
  • Satellite Maps
  • Weather Map
  • Weather Widgets
  • user-avatar
    Login

    Hourly Weather Tyrgowishte

    Today, 16 December, Saturday

    Time Temperature Precipitation Wind Pressure Humidity
    00:00 +8°C° 0 mm 5 mps 738 mmHg 78%
    01:00 +8°C° 0 mm 5 mps 737 mmHg 80%
    02:00 +8°C° 0 mm 5 mps 737 mmHg 83%
    03:00 +8°C° 0 mm 5 mps 737 mmHg 83%
    04:00 +9°C° 0 mm 6 mps 736 mmHg 84%
    05:00 +9°C° 0 mm 6 mps 736 mmHg 85%
    06:00 +9°C° 0 mm 6 mps 736 mmHg 84%
    07:00 +9°C° 0 mm 6 mps 736 mmHg 83%
    08:00 +9°C° 0 mm 6 mps 736 mmHg 82%
    09:00 +10°C° 0 mm 6 mps 736 mmHg 75%
    10:00 +12°C° 0 mm 7 mps 736 mmHg 69%
    11:00 +14°C° 0 mm 7 mps 736 mmHg 62%
    12:00 +15°C° 0 mm 7 mps 736 mmHg 59%
    13:00 +16°C° 0 mm 7 mps 737 mmHg 56%
    14:00 +16°C° 0 mm 7 mps 737 mmHg 53%
    15:00 +15°C° 0 mm 6 mps 737 mmHg 57%
    16:00 +14°C° 0 mm 5 mps 737 mmHg 61%
    17:00 +13°C° 0 mm 4 mps 737 mmHg 66%
    18:00 +13°C° 0.1 mm 3 mps 738 mmHg 69%
    19:00 +12°C° 0.1 mm 3 mps 738 mmHg 73%
    20:00 +11°C° 0.1 mm 3 mps 738 mmHg 77%
    21:00 +12°C° 0.4 mm 2 mps 738 mmHg 81%
    22:00 +12°C° 0.4 mm 2 mps 738 mmHg 85%
    23:00 +10°C° 0.4 mm 2 mps 739 mmHg 89%

    Tomorrow, 17 December, Sunday

    Time Temperature Precipitation Wind Pressure Humidity
    00:00 +10°C° 1.4 mm 2 mps 738 mmHg 90%
    01:00 +9°C° 1.4 mm 2 mps 738 mmHg 91%
    02:00 +9°C° 1.4 mm 3 mps 738 mmHg 93%
    03:00 +8°C° 1.3 mm 3 mps 738 mmHg 92%
    04:00 +7°C° 1.3 mm 4 mps 738 mmHg 91%
    05:00 +6°C° 1.3 mm 5 mps 738 mmHg 90%
    06:00 +6°C° 0.4 mm 4 mps 738 mmHg 89%
    07:00 +6°C° 0.4 mm 4 mps 739 mmHg 89%
    08:00 +5°C° 0.4 mm 4 mps 739 mmHg 88%
    09:00 +5°C° 0.3 mm 4 mps 740 mmHg 86%
    10:00 +5°C° 0.3 mm 4 mps 740 mmHg 84%
    11:00 +5°C° 0.3 mm 4 mps 740 mmHg 83%
    12:00 +5°C° 0.3 mm 4 mps 740 mmHg 82%
    13:00 +5°C° 0.3 mm 3 mps 740 mmHg 81%
    14:00 +5°C° 0.3 mm 3 mps 740 mmHg 80%
    15:00 +5°C° 0.2 mm 3 mps 741 mmHg 81%
    16:00 +4°C° 0.2 mm 3 mps 741 mmHg 82%
    17:00 +4°C° 0.2 mm 3 mps 741 mmHg 82%
    18:00 +4°C° 0.3 mm 3 mps 742 mmHg 83%
    19:00 +4°C° 0.3 mm 3 mps 742 mmHg 83%
    20:00 +3°C° 0.3 mm 3 mps 743 mmHg 83%
    21:00 +3°C° 0.1 mm 3 mps 744 mmHg 83%
    22:00 +3°C° 0.1 mm 3 mps 744 mmHg 83%
    23:00 +4°C° 0.1 mm 2 mps 745 mmHg 83%

    Day after tomorrow, 18 December, Monday

    Time Temperature Precipitation Wind Pressure Humidity
    00:00 +3°C° 0 mm 2 mps 745 mmHg 83%
    01:00 +3°C° 0 mm 2 mps 745 mmHg 83%
    02:00 +3°C° 0 mm 2 mps 745 mmHg 82%
    03:00 +3°C° 0 mm 2 mps 746 mmHg 82%
    04:00 +3°C° 0 mm 2 mps 746 mmHg 82%
    05:00 +2°C° 0 mm 2 mps 746 mmHg 82%
    06:00 +2°C° 0 mm 2 mps 746 mmHg 82%
    07:00 +2°C° 0 mm 2 mps 747 mmHg 82%
    08:00 +3°C° 0 mm 1 mps 747 mmHg 82%
    09:00 +2°C° 0 mm 2 mps 747 mmHg 78%
    10:00 +3°C° 0 mm 2 mps 747 mmHg 74%
    11:00 +4°C° 0 mm 2 mps 748 mmHg 70%
    12:00 +4°C° 0 mm 2 mps 747 mmHg 69%
    13:00 +4°C° 0 mm 2 mps 747 mmHg 67%
    14:00 +4°C° 0 mm 2 mps 747 mmHg 66%
    15:00 +4°C° 0.1 mm 2 mps 747 mmHg 69%
    16:00 +3°C° 0.1 mm 2 mps 747 mmHg 72%
    17:00 +3°C° 0.1 mm 2 mps 747 mmHg 75%
    18:00 +3°C° 0.2 mm 2 mps 747 mmHg 76%
    19:00 +2°C° 0.2 mm 2 mps 747 mmHg 77%
    20:00 +2°C° 0.2 mm 2 mps 747 mmHg 78%
    21:00 +2°C° 0.4 mm 2 mps 748 mmHg 80%
    22:00 +1°C° 0.4 mm 3 mps 748 mmHg 81%
    23:00 0°C° 0.4 mm 3 mps 749 mmHg 83%

    19 December, Tuesday

    Time Temperature Precipitation Wind Pressure Humidity
    00:00 0°C° 0.2 mm 3 mps 749 mmHg 84%
    01:00 0°C° 0.2 mm 3 mps 749 mmHg 84%
    02:00 -1°C° 0.2 mm 3 mps 749 mmHg 85%
    03:00 -1°C° 0.2 mm 3 mps 749 mmHg 85%
    04:00 -1°C° 0.2 mm 3 mps 750 mmHg 85%
    05:00 -1°C° 0.2 mm 3 mps 750 mmHg 86%
    06:00 -1°C° 0.3 mm 3 mps 750 mmHg 86%
    07:00 -1°C° 0.3 mm 3 mps 751 mmHg 87%
    08:00 -1°C° 0.3 mm 2 mps 752 mmHg 87%
    09:00 -1°C° 0.2 mm 3 mps 752 mmHg 86%
    10:00 -1°C° 0.2 mm 3 mps 752 mmHg 85%
    11:00 0°C° 0.2 mm 3 mps 753 mmHg 84%
    12:00 0°C° 0.2 mm 3 mps 753 mmHg 84%
    13:00 0°C° 0.2 mm 3 mps 753 mmHg 83%
    14:00 0°C° 0.2 mm 3 mps 753 mmHg 83%
    15:00 0°C° 0.2 mm 3 mps 753 mmHg 84%
    16:00 -1°C° 0.2 mm 3 mps 753 mmHg 86%
    17:00 -1°C° 0.2 mm 3 mps 753 mmHg 88%
    18:00 -2°C° 0.1 mm 3 mps 754 mmHg 89%
    19:00 -2°C° 0.1 mm 3 mps 754 mmHg 90%
    20:00 -2°C° 0.1 mm 3 mps 754 mmHg 91%
    21:00 -2°C° 0.1 mm 3 mps 755 mmHg 91%
    22:00 -4°C° 0.1 mm 3 mps 755 mmHg 91%
    23:00 -4°C° 0.1 mm 3 mps 755 mmHg 92%

    20 December, Wednesday

    Time Temperature Precipitation Wind Pressure Humidity
    00:00 -4°C° 0.1 mm 3 mps 755 mmHg 91%
    01:00 -4°C° 0.1 mm 3 mps 755 mmHg 91%
    02:00 -4°C° 0.1 mm 3 mps 755 mmHg 91%
    03:00 -3°C° 0 mm 2 mps 755 mmHg 91%
    04:00 -3°C° 0 mm 2 mps 755 mmHg 91%
    05:00 -3°C° 0 mm 2 mps 755 mmHg 91%
    06:00 -3°C° 0 mm 2 mps 755 mmHg 91%
    07:00 -1°C° 0 mm 1 mps 755 mmHg 92%
    08:00 -2°C° 0 mm 1 mps 755 mmHg 92%
    09:00 -1°C° 0 mm 1 mps 755 mmHg 88%
    10:00 -2°C° 0 mm 2 mps 755 mmHg 85%
    11:00 -1°C° 0 mm 2 mps 755 mmHg 82%
    12:00 -1°C° 0 mm 2 mps 755 mmHg 80%
    13:00 -1°C° 0 mm 2 mps 755 mmHg 79%
    14:00 +1°C° 0 mm 2 mps 754 mmHg 77%
    15:00 -1°C° 0 mm 2 mps 755 mmHg 80%
    16:00 +1°C° 0 mm 1 mps 755 mmHg 82%
    17:00 0°C° 0 mm 1 mps 755 mmHg 84%
    18:00 0°C° 0 mm 1 mps 755 mmHg 85%
    19:00 0°C° 0 mm 1 mps 755 mmHg 86%
    20:00 -2°C° 0 mm 0 mps 756 mmHg 86%
    21:00 -2°C° 0 mm 0 mps 756 mmHg 86%
    22:00 -2°C° 0 mm 0 mps 756 mmHg 86%
    23:00 -2°C° 0 mm 0 mps 756 mmHg 86%

    21 December, Thursday

    Time Temperature Precipitation Wind Pressure Humidity
    00:00 -1°C° 0 mm 1 mps 756 mmHg 86%
    01:00 -1°C° 0 mm 1 mps 756 mmHg 86%
    02:00 -2°C° 0 mm 1 mps 756 mmHg 86%
    03:00 -2°C° 0 mm 1 mps 755 mmHg 86%
    04:00 -2°C° 0 mm 1 mps 755 mmHg 87%
    05:00 -2°C° 0 mm 1 mps 755 mmHg 87%
    06:00 -2°C° 0 mm 1 mps 755 mmHg 88%
    07:00 -2°C° 0 mm 1 mps 755 mmHg 89%
    08:00 -2°C° 0 mm 1 mps 755 mmHg 89%
    09:00 -3°C° 0 mm 2 mps 755 mmHg 86%
    10:00 -2°C° 0 mm 2 mps 755 mmHg 83%
    11:00 -2°C° 0 mm 3 mps 755 mmHg 80%
    12:00 -2°C° 0 mm 3 mps 755 mmHg 78%
    13:00 -1°C° 0 mm 3 mps 754 mmHg 77%
    14:00 -1°C° 0 mm 3 mps 754 mmHg 75%
    15:00 -2°C° 0 mm 3 mps 754 mmHg 78%
    16:00 -2°C° 0 mm 2 mps 754 mmHg 82%
    17:00 -3°C° 0 mm 2 mps 753 mmHg 85%
    18:00 -3°C° 0 mm 2 mps 753 mmHg 85%
    19:00 -4°C° 0 mm 2 mps 753 mmHg 85%
    20:00 -4°C° 0 mm 2 mps 753 mmHg 85%
    21:00 -4°C° 0 mm 2 mps 753 mmHg 82%
    22:00 -4°C° 0 mm 2 mps 753 mmHg 79%
    23:00 -4°C° 0 mm 2 mps 752 mmHg 77%
    Show more